sat.trackr.live / text

‹ back to catalog

STARLINK-34133

NORAD 64143 · 2025-111W

PAYLOAD ACTIVE UNKNOWN

§ Identity

Operator
Country
US
Launch date
2025-05-24
Launch site
AFETR
Launch vehicle
Mass (kg)
RCS (m²)

Purposes: comms

External: N2YO · Heavens-Above · Gunter

§ Orbital elements

Epoch: 2026-09-20T17:14:03.335424Z

Period
94.27 min
Inclination
42.9970°
Eccentricity
0.0002424
Mean motion
15.27570407 rev/d
Perigee alt
481.4 km
Apogee alt
484.7 km
Semi-major
6,861.2 km
B*
4.9855e-4
RAAN
56.1737°
Arg perigee
270.8670°
Mean anomaly
89.1904°
Rev number
7,529

§ Raw data

STARLINK-341331 64143U 25111W   26263.71809416  .00013478  00000+0  49855-3 0  99992 64143  42.9970  56.1737 0002424 270.8670  89.1904 15.27570407 75294

JSON: /api/v1/satellites/64143 · /tle

For live sub-satellite position, see the globe view (requires WebGL).

§ Visibility from observer

Set your observer location to see the next 7 days of passes ≥ 10°. The values pass through the URL so the page stays shareable.

No JS? Fill the form by hand. The geolocation button needs JavaScript.